Regional Weather Roundup
Issued by NWS

Home | Current Version | Previous Version | Text Only | Print | Product List | Glossary Off
Versions: 1 2 3 4 5 6 7 8 9 10 11 12 13 14 15 16 17 18 19 20 21 22 23 24 25 26 27 28 29 30 31 32 33 34 35 36 37 38 39 40 41 42 43 44 45 46 47 48 49 50

138
ASUS43 KBIS 211402
RWRND

NORTH DAKOTA REGIONAL WEATHER ROUNDUP
NATIONAL WEATHER SERVICE BISMARCK ND
900 AM CDT SAT OCT 21 2017

NOTE: "FAIR" INDICATES FEW OR NO CLOUDS BELOW 12,000 FEET WITH NO
SIGNIFICANT WEATHER AND/OR OBSTRUCTIONS TO VISIBILITY.


NDZ001>003-009>011-017-211500-
NORTHWEST NORTH DAKOTA

CITY           SKY/WX    TMP DP  RH WIND       PRES   REMARKS
WILLISTON      MOCLDY    46  37  71 SW15      29.51R
MINOT          CLOUDY    49  39  68 W20G29    29.44R
MINOT AFB      CLOUDY    47  38  70 W24G38    29.41R
$$

NDZ018>021-031>035-040>046-211500-
SOUTHWEST NORTH DAKOTA

CITY           SKY/WX    TMP DP  RH WIND       PRES   REMARKS
BISMARCK       RAIN      48  43  82 W22G29    29.54R
DICKINSON      CLOUDY    47  35  63 W29G41    29.56R
GARRISON         N/A     48  39  71 W28G36    29.50R
HETTINGER ARPT CLOUDY    46  29  51 W30G37    29.63R
$$

NDZ004>008-012>016-024-026-027-054-211500-
NORTHEAST NORTH DAKOTA

CITY           SKY/WX    TMP DP  RH WIND       PRES   REMARKS
GRAND FORKS    MOCLDY    61  57  87 SW12      29.39R
GRND FRKS AFB  CLEAR     57  43  60 SW8       29.39R
DEVILS LAKE    PTCLDY    51  40  65 W18       29.38R
$$

NDZ022-023-025-028>030-036>039-047>053-211500-
SOUTHEAST NORTH DAKOTA

CITY           SKY/WX    TMP DP  RH WIND       PRES   REMARKS
FARGO          CLOUDY    63  58  83 S16G30    29.42R
JAMESTOWN      CLOUDY    53  40  61 W21       29.44R
$$





USA.gov is the U.S. government's official web portal to all federal, state and local government web resources and services.